• Join FlightAware (Why Join?)
  • Login
  • US Flag 
02:04PM EST


 

Airport Tracker/Info


-or-


 

Live Flight TrackerFlight Track Log ✈ SWA1798 ✈ 27-Apr-2013 ✈ KSNA - KDEN

Flight Track Log - Related Links

Times and Time Zones

All times are in EDT time to prevent confusion due to time zone crossing. See the SWA1798 flight status page for this flight to view local times or setup timezone preferences in your user account.

Time Position Orientation Groundspeed Altitude Reporting Facility
EDT Latitude Longitude Course Direction KTS MPH feet Rate Location/Type
06:02PM 33.5917 -117.8969 191° South 159 183 3,500  Level Los Angeles Center
06:03PM 33.5522 -117.8328 126° Southeast 244 281 5,300 2,758 Climbing Los Angeles Center
06:04PM 33.5611 -117.7428 83° East 269 310 9,200 3,145 Climbing Los Angeles Center
06:05PM 33.5700 -117.6456 84° East 290 334 11,800 3,290 Climbing Los Angeles Center
06:06PM 33.5833 -117.4067 90° East  Level FlightAware Approximate
06:06PM 33.5803 -117.5122 85° East 335 386 16,000  Level Los Angeles Center
06:07PM 33.5869 -117.3922 86° East 360 414 18,800 2,565 Climbing Los Angeles Center
06:08PM 33.5914 -117.2631 88° East 385 443 21,300 2,226 Climbing Los Angeles Center
06:09PM 33.5967 -117.1275 87° East 404 465 23,400 2,226 Climbing Los Angeles Center
06:10PM 33.6028 -116.9869 87° East 418 481 25,900 2,244 Climbing Los Angeles Center
06:11PM 33.6458 -116.8403 71° East 431 496 28,000 1,951 Climbing Los Angeles Center
06:12PM 33.6881 -116.6997 70° East 441 507 29,900 1,544 Climbing Los Angeles Center
06:14PM 33.7361 -116.5586 68° East 451 519 31,500 1,620 Climbing Los Angeles Center
06:15PM 33.8158 -116.4033 58° Northeast 455 524 33,600 1,742 Climbing Los Angeles Center
06:16PM 33.8825 -116.2714 59° Northeast 458 527 35,100 1,610 Climbing Los Angeles Center
06:17PM 33.9619 -116.1158 58° Northeast 455 524 36,900 919 Climbing Los Angeles Center
06:18PM 34.0161 -116.0114 58° Northeast 457 526 37,000 581 Climbing Los Angeles Center
06:19PM 34.0950 -115.8561 58° Northeast 453 521 38,100 968 Climbing Los Angeles Center
06:20PM 34.1631 -115.7242 58° Northeast 460 529 39,000 435 Climbing Los Angeles Center
06:21PM 34.2306 -115.5939 58° Northeast 458 527 39,000  Level Los Angeles Center
06:22PM 34.2967 -115.4603 59° Northeast 462 532 39,000  Level Los Angeles Center
06:23PM 34.3772 -115.3036 58° Northeast 458 527 39,000  Level Los Angeles Center
06:24PM 34.4433 -115.1717 59° Northeast 458 527 39,000  Level Los Angeles Center
06:25PM 34.5086 -115.0378 59° Northeast 460 529 39,000  Level Los Angeles Center
06:26PM 34.5733 -114.9067 59° Northeast 455 524 39,000  Level Los Angeles Center
06:27PM 34.6386 -114.7769 59° Northeast 453 521 39,000  Level Los Angeles Center
06:28PM 34.7139 -114.6242 59° Northeast 456 525 39,000  Level Los Angeles Center
06:29PM 34.7786 -114.4933 59° Northeast 454 522 39,000  Level Los Angeles Center
06:30PM 34.8425 -114.3617 59° Northeast 454 522 39,000  Level Los Angeles Center
06:31PM 34.9064 -114.2319 59° Northeast 451 519 39,000  Level Los Angeles Center
06:32PM 34.9697 -114.1008 59° Northeast 451 519 39,000  Level Los Angeles Center
06:33PM 35.0333 -113.9706 59° Northeast 448 516 39,000  Level Los Angeles Center
06:34PM 35.1033 -113.8256 59° Northeast 447 514 39,000  Level Los Angeles Center
06:35PM 35.1656 -113.6953 60° Northeast 445 512 39,000  Level Los Angeles Center
06:36PM 35.2294 -113.5642 59° Northeast 450 518 39,000  Level Los Angeles Center
06:37PM 35.2917 -113.4333 60° Northeast 446 513 39,000  Level Los Angeles Center
06:38PM 35.3678 -113.2728 60° Northeast 453 521 39,000  Level Los Angeles Center
06:39PM 35.4244 -113.1544 60° Northeast 451 519 39,000  Level Los Angeles Center
06:40PM 35.4881 -113.0217 59° Northeast 451 519 39,000  Level Los Angeles Center
06:41PM 35.5597 -112.8653 61° Northeast 448 516 39,000  Level Los Angeles Center
06:42PM 35.6197 -112.7350 60° Northeast 442 509 39,000  Level Los Angeles Center
06:43PM 35.6800 -112.6078 60° Northeast 442 509 39,000  Level Los Angeles Center
06:45PM 35.7417 -112.4767 60° Northeast 441 507 39,000  Level Los Angeles Center
06:46PM 35.8022 -112.3461 60° Northeast 442 509 39,000  Level Los Angeles Center
06:47PM 35.8753 -112.1894 60° Northeast 441 507 39,000  Level Los Angeles Center
06:48PM 35.9331 -112.0569 62° Northeast 442 509 39,000  Level Los Angeles Center
06:49PM 35.9936 -111.9228 61° Northeast 439 505 39,000  Level Los Angeles Center
06:49PM 36.0308 -111.8458 59° Northeast 438 504 39,000  Level Denver Center
06:50PM 36.0906 -111.7142 61° Northeast 440 506 39,000 -98 Level Denver Center
06:51PM 36.1500 -111.5839 61° Northeast 438 504 38,800 -585 Descending Denver Center
06:52PM 36.2089 -111.4519 61° Northeast 439 505 37,800 -871 Descending Denver Center
06:53PM 36.2675 -111.3189 61° Northeast 441 507 37,000 -390 Descending Denver Center
06:54PM 36.3169 -111.2097 61° Northeast 448 516 37,000  Level Denver Center
06:55PM 36.3897 -111.0486 61° Northeast 449 517 37,000  Level Denver Center
06:56PM 36.4603 -110.8853 62° Northeast 449 517 37,000  Level Denver Center
06:57PM 36.5206 -110.7503 61° Northeast 449 517 37,000  Level Denver Center
06:58PM 36.5811 -110.6144 61° Northeast 449 517 37,000  Level Denver Center
06:59PM 36.6400 -110.4786 62° Northeast 449 517 37,000  Level Denver Center
07:00PM 36.6994 -110.3414 62° Northeast 451 519 37,000  Level Denver Center
07:01PM 36.7592 -110.2042 61° Northeast 450 518 37,000  Level Denver Center
07:03PM 36.8250 -110.0519 62° Northeast 449 517 37,000  Level Denver Center
07:04PM 36.8814 -109.9203 62° Northeast 449 517 37,000  Level Denver Center
07:05PM 36.9464 -109.7683 62° Northeast 445 512 37,000  Level Denver Center
07:06PM 37.0017 -109.6389 62° Northeast 443 510 37,000  Level Denver Center
07:07PM 37.0661 -109.4839 62° Northeast 447 514 37,000  Level Denver Center
07:08PM 37.1219 -109.3533 62° Northeast 444 511 37,000  Level Denver Center
07:09PM 37.1778 -109.2214 62° Northeast 446 513 37,000  Level Denver Center
07:10PM 37.2417 -109.0667 63° Northeast 448 516 37,000  Level Denver Center
07:11PM 37.2975 -108.9356 62° Northeast 446 513 37,000  Level Denver Center
07:12PM 37.3611 -108.7803 63° Northeast 447 514 37,000  Level Denver Center
07:13PM 37.4153 -108.6486 63° Northeast 443 510 37,000  Level Denver Center
07:14PM 37.4694 -108.5178 62° Northeast 441 507 37,000  Level Denver Center
07:15PM 37.5319 -108.3656 63° Northeast 438 504 37,000  Level Denver Center
07:16PM 37.5853 -108.2322 63° Northeast 443 510 37,000  Level Denver Center
07:17PM 37.6481 -108.0789 63° Northeast 441 507 37,000  Level Denver Center
07:18PM 37.7025 -107.9467 62° Northeast 442 509 37,000  Level Denver Center
07:19PM 37.7567 -107.8103 63° Northeast 449 517 37,000  Level Denver Center
07:20PM 37.8408 -107.6736 52° Northeast 444 511 37,000  Level Denver Center
07:21PM 37.9133 -107.5556 52° Northeast 443 510 37,000  Level Denver Center
07:22PM 37.9967 -107.4186 52° Northeast 440 506 37,000  Level Denver Center
07:23PM 38.0681 -107.3022 52° Northeast 436 502 37,000  Level Denver Center
07:24PM 38.1453 -107.1775 52° Northeast 432 497 37,000 -98 Level Denver Center
07:25PM 38.2133 -107.0656 52° Northeast 438 504 36,800 -585 Descending Denver Center
07:26PM 38.2878 -106.9447 52° Northeast 435 501 35,800 -927 Descending Denver Center
07:27PM 38.3622 -106.8217 52° Northeast 439 505 34,900 -1,024 Descending Denver Center
07:28PM 38.4517 -106.6733 52° Northeast 439 505 33,700 -1,016 Descending Denver Center
07:29PM 38.5242 -106.5519 53° Northeast 431 496 32,800 -927 Descending Denver Center
07:30PM 38.5958 -106.4308 53° Northeast 428 493 31,800 -1,024 Descending Denver Center
07:31PM 38.6653 -106.3142 53° Northeast 414 476 30,700 -1,024 Descending Denver Center
07:32PM 38.7342 -106.1972 53° Northeast 412 474 29,700 -1,024 Descending Denver Center
07:33PM 38.8133 -106.0664 52° Northeast 415 478 28,600 -1,073 Descending Denver Center
07:34PM 38.8822 -105.9494 53° Northeast 410 472 27,500 -1,122 Descending Denver Center
07:35PM 38.9511 -105.8289 54° Northeast 414 476 26,300 -1,805 Descending Denver Center
07:36PM 39.0256 -105.7028 53° Northeast 406 467 23,800 -2,293 Descending Denver Center
07:37PM 39.0883 -105.5961 53° Northeast 393 452 21,600 -2,146 Descending Denver Center
07:38PM 39.1481 -105.4908 54° Northeast 380 437 19,400 -2,049 Descending Denver Center
07:39PM 39.2153 -105.3783 52° Northeast 370 426 17,400 -1,317 Descending Denver Center
07:40PM 39.2750 -105.2689 55° Northeast 351 404 16,700 -1,122 Descending Denver Center
07:41PM 39.3547 -105.2142 28° Northeast 330 380 15,100 -1,122 Descending Denver Center
07:43PM 39.4003 -105.1294 55° Northeast 289 333 14,400 -976 Descending Denver Center
07:44PM 39.4067 -105.0208 86° East 281 323 13,100 -683 Descending Denver Center
07:45PM 39.4119 -104.9275 86° East 265 305 13,000 -541 Descending Denver Center
07:46PM 39.4375 -104.8478 67° East 260 299 12,000 -1,024 Descending Denver Center
07:47PM 39.5006 -104.8128 23° Northeast 248 285 10,900 -1,073 Descending Denver Center
07:48PM 39.5650 -104.7719 26° Northeast 240 276 9,800 -885 Descending Denver Center
07:49PM 39.6253 -104.7378 24° Northeast 237 273 9,100 -732 Descending Denver Center
07:50PM 39.6822 -104.7031 25° Northeast 229 264 8,300 -780 Descending Denver Center
07:51PM 39.7364 -104.6714 24° Northeast 198 228 7,500 -934 Descending Denver Center
07:52PM 39.7861 -104.6611 North 178 205 6,400 -1,024 Descending Denver Center
07:53PM 39.8286 -104.6611 360° North 156 180 5,400 -968 Descending Denver Center
07:55PM 39.8500 -104.6667 North  Level FlightAware Approximate
08:02PM 39.8617 -104.6732 North  Level Estimated
08:03PM 39.8617 -104.6732 North  Level Estimated